Regional Weather Roundup
Issued by NWS

Home | Current Version | Previous Version | Text Only | Print | Product List | Glossary Off
Versions: 1 2 3 4 5 6 7 8 9 10 11 12 13 14 15 16 17 18 19 20 21 22 23 24 25 26 27 28 29 30 31 32 33 34 35 36 37 38 39 40 41 42 43 44 45 46 47 48 49 50

435
ASUS45 KCYS 240110
RWRWY

WYOMING REGIONAL WEATHER ROUNDUP
NATIONAL WEATHER SERVICE CHEYENNE WY
700 PM MDT SUN APR 23 2017

NOTE:  "FAIR" INDICATES FEW OR NO CLOUDS BELOW 12,000 FEET
WITH NO SIGNIFICANT WEATHER AND/OR OBSTRUCTIONS TO VISIBILITY.

WYZ001-240200-
YELLOWSTONE NATIONAL PARK

CITY           SKY/WX    TMP DP  RH WIND       PRES   REMARKS
LK YELLOWSTONE   N/A     33  33 100 CALM      29.83F
W YELLOWSTONE  NOT AVBL

$$
WYZ002>013-054>058-071-098>099-240200-
NORTHERN WYOMING

CITY           SKY/WX    TMP DP  RH WIND       PRES   REMARKS
JACKSON        MOSUNNY   46  30  53 S15       29.80F
CODY           FAIR      54  34  46 W9G22     29.68S
GREYBULL       FAIR      66  32  28 SW18      29.59R
WORLAND        PTSUNNY   60  46  59 S7        29.60S
SHERIDAN       CLOUDY    60  45  57 W12       29.58S
BUFFALO        FAIR      64  31  28 W16       29.62S
GILLETTE       FAIR      65  40  39 NE9       29.58F
HULETT         FAIR      54  41  62 E13G22    29.65F
NEWCASTLE      FAIR      66  28  24 S13       29.60F

$$
WYZ014>020-022>026-101>103-240200-
CENTRAL WYOMING

CITY           SKY/WX    TMP DP  RH WIND       PRES   REMARKS
BIG PINEY      CLOUDY    45  29  53 NW16      29.86R
PINEDALE       CLOUDY    43  32  65 NW17G28   29.86R
DUBOIS         CLOUDY    43  28  56 W8        29.79F
LANDER         FAIR      57  34  41 NW13      29.68S
RIVERTON       FAIR      58  34  40 NW15      29.70F
CASPER         CLOUDY    62  30  29 W32G41    29.64S
DOUGLAS        FAIR      70  31  23 S8        29.63F

$$
WYZ021-027>030-104>119-240200-
SOUTHERN WYOMING

CITY           SKY/WX    TMP DP  RH WIND       PRES   REMARKS
EVANSTON       CLOUDY    47  31  53 NW16      29.88R
KEMMERER         N/A     41  32  70 NW25G33   29.87R
FORT BRIDGER   LGT RAIN  46  37  71 S9        29.90R
ROCK SPRINGS   PTSUNNY   55  29  36 W6        29.79S
DIXON            N/A     64  23  20 SW14G25   29.79S
RAWLINS        FAIR      62  15  16 SW28G33   29.75F
SARATOGA       FAIR      61  19  20 SW17G25   29.78F
LARAMIE        FAIR      58  22  24 MISG      29.78F
CHEYENNE       FAIR      60  29  30 S8        29.76F
TORRINGTON     FAIR      68  29  23 S16       29.63F
PINE BLUFFS    FAIR      63  34  34 CALM      29.71F

$$




USA.gov is the U.S. government's official web portal to all federal, state and local government web resources and services.